TimeEDT,TemperatureF,Dew PointF,Humidity,Sea Level PressureIn,VisibilityMPH,Wind Direction,Wind SpeedMPH,Gust SpeedMPH,PrecipitationIn,Events,Conditions,WindDirDegrees,DateUTC
12:51 AM,78.1,73.9,87,30.22,10.0,South,6.9,-,N/A,,Mostly Cloudy,190,2013-07-04 04:51:00
1:51 AM,78.1,73.0,84,30.21,10.0,SSW,8.1,-,N/A,,Scattered Clouds,210,2013-07-04 05:51:00
2:51 AM,78.1,73.0,84,30.21,10.0,SW,8.1,-,N/A,,Scattered Clouds,220,2013-07-04 06:51:00
3:51 AM,77.0,73.0,88,30.20,10.0,SSW,8.1,-,N/A,,Scattered Clouds,210,2013-07-04 07:51:00
4:51 AM,77.0,73.0,88,30.21,10.0,SSW,9.2,-,N/A,,Scattered Clouds,210,2013-07-04 08:51:00
5:51 AM,77.0,72.0,84,30.22,10.0,SW,6.9,-,N/A,,Scattered Clouds,220,2013-07-04 09:51:00
6:51 AM,77.0,72.0,84,30.24,10.0,SW,10.4,-,N/A,,Mostly Cloudy,220,2013-07-04 10:51:00
7:51 AM,78.1,72.0,81,30.25,10.0,SW,9.2,-,N/A,,Mostly Cloudy,220,2013-07-04 11:51:00
8:51 AM,80.1,72.0,76,30.25,10.0,SSW,10.4,-,N/A,,Mostly Cloudy,210,2013-07-04 12:51:00
9:51 AM,82.9,71.1,67,30.25,10.0,SW,9.2,-,N/A,,Mostly Cloudy,220,2013-07-04 13:51:00
10:51 AM,84.0,71.1,65,30.24,10.0,SW,8.1,-,N/A,,Mostly Cloudy,220,2013-07-04 14:51:00
11:51 AM,86.0,69.1,57,30.23,10.0,SW,12.7,20.7,N/A,,Mostly Cloudy,220,2013-07-04 15:51:00
12:51 PM,87.1,69.1,55,30.22,10.0,SW,10.4,19.6,N/A,,Scattered Clouds,230,2013-07-04 16:51:00
1:51 PM,88.0,70.0,55,30.20,10.0,SSW,12.7,19.6,N/A,,Mostly Cloudy,210,2013-07-04 17:51:00
2:51 PM,87.1,71.1,59,30.19,10.0,South,13.8,21.9,N/A,,Mostly Cloudy,170,2013-07-04 18:51:00
3:51 PM,90.0,69.1,50,30.17,10.0,SW,12.7,-,N/A,,Mostly Cloudy,230,2013-07-04 19:51:00
4:51 PM,91.0,66.9,45,30.16,10.0,WSW,12.7,20.7,N/A,,Mostly Cloudy,240,2013-07-04 20:51:00
5:51 PM,90.0,68.0,48,30.15,10.0,SW,15.0,23.0,N/A,,Scattered Clouds,220,2013-07-04 21:51:00
6:51 PM,89.1,68.0,50,30.15,10.0,SW,12.7,-,N/A,,Scattered Clouds,230,2013-07-04 22:51:00
7:51 PM,88.0,66.9,49,30.15,10.0,SW,13.8,20.7,N/A,,Partly Cloudy,220,2013-07-04 23:51:00
8:51 PM,86.0,68.0,55,30.17,10.0,SSW,13.8,-,N/A,,Mostly Cloudy,210,2013-07-05 00:51:00
9:51 PM,84.9,68.0,57,30.18,10.0,SSW,11.5,-,N/A,,Scattered Clouds,210,2013-07-05 01:51:00
10:51 PM,84.0,69.1,61,30.19,10.0,SSW,12.7,-,N/A,,Clear,210,2013-07-05 02:51:00
11:51 PM,82.0,69.1,65,30.20,10.0,SW,8.1,-,N/A,,Clear,220,2013-07-05 03:51:00